Location: ??
(35.3149°N, 139.6204°E)
Time: 18:36:41
(UTC+00:00)

Daily predictions for brighter satellites

Satellite Brightness Start Highest point End
(mag) Time Altitude Azimuth Time Altitude Azimuth Time Altitude Azimuth
Cosmos 2016 Rocket 4.5 18:46:05 50° S 18:46:05 50° S 18:50:31 10° S
SJ 16-02 3.0 18:49:00 29° ESE 18:49:00 29° ESE 18:51:23 10° SE
USA 229 DEB 3.5 18:56:48 62° N 18:56:48 62° N 19:02:11 10° NNE
USA 229 3.5 18:56:59 63° N 18:56:59 63° N 19:02:24 10° NNE
Cosmos 1110 Rocket 4.4 19:01:00 10° S 19:06:10 61° ESE 19:11:24 10° NNE
Aureole 3 3.9 19:04:18 10° S 19:10:15 86° W 19:15:12 10° N
SL-16 R/B 2.9 19:12:11 39° N 19:12:11 39° N 19:15:56 10° NNE
USA 267 3.1 19:04:30 10° NE 19:11:00 71° NW 19:12:26 55° WSW
Cosmos 304 Rocket 3.7 19:12:25 77° NE 19:12:37 79° ENE 19:17:22 10° SSE
ATLAS 3B R/B 2.9 19:12:31 50° WSW 19:14:11 61° NW 19:21:56 10° NNE
Cosmos 371 Rocket 3.3 19:13:59 68° N 19:14:32 80° ENE 19:19:21 10° SSE
CZ-3 R/B 3.1 19:04:58 29° WSW 19:14:46 59° S 19:21:31 10° ESE
CENTAUR R/B 4.1 19:08:54 13° NNW 19:16:35 49° NE 19:25:39 10° SE
OAO 1 4.3 19:20:43 67° W 19:21:29 89° S 19:26:58 10° E
Cosmos 1818 3.8 19:34:53 10° SSW 19:40:14 70° ESE 19:45:39 10° NE
Cosmos 1452 Rocket 3.4 19:38:49 10° SSW 19:44:01 81° WNW 19:49:16 10° NNE
Cosmos 2233 Rocket 4.3 19:41:30 24° NW 19:44:42 40° W 19:50:23 10° SSW
Cosmos 1378 Rocket 3.5 19:45:04 10° SSW 19:49:14 56° W 19:53:27 10° N
Cosmos 1331 Rocket 4.0 19:44:41 10° SSW 19:49:49 54° WNW 19:54:57 10° N
Lacrosse 5 rocket 3.5 19:48:44 10° N 19:50:34 14° NE 19:52:23 10° ENE
CZ-4 R/B 3.7 19:46:46 10° N 19:51:33 82° WNW 19:56:13 10° SSW
Cosmos 2061 Rocket 4.4 19:47:22 12° NNW 19:52:37 38° W 19:58:16 10° SSW
Cosmos 1850 Rocket 4.5 19:48:56 10° N 19:54:03 60° ENE 19:59:08 10° SSE
SL-16 R/B 4.5 19:51:02 10° SW 19:51:09 10° SW 19:51:09 10° SW
Cosmos 2221 Rocket 3.9 19:51:04 10° S 19:55:33 70° E 20:00:04 10° NNE
Hubble Space Telescope 2.8 19:54:16 11° SSW 19:56:54 19° SSE 19:59:40 10° ESE
Cosmos 1943 3.1 19:51:26 10° SSW 19:56:59 66° WNW 20:02:34 10° NNE
Helios 1A Rocket 3.2 19:55:08 10° SSE 19:58:24 52° ENE 20:01:41 10° N
Atlas Centaur 2 4.3 19:52:21 10° SW 19:58:55 30° SSE 20:04:41 10° E
NOAA 12 4.0 19:53:54 10° N 19:59:13 78° WNW 20:04:30 10° SSW
Cosmos 1812 3.6 20:01:54 21° SW 20:01:54 21° SW 20:03:10 10° SSW
Lacrosse 4 Rocket 4.0 19:58:54 10° NNE 20:01:10 15° NE 20:03:23 10° E
Cosmos 2369 Rocket 2.1 19:55:53 10° NNW 20:01:36 82° WSW 20:07:18 10° SSE
Cosmos 1464 Rocket 4.2 19:55:57 10° N 20:02:05 75° E 20:08:11 10° SSE
Cosmos 2297 3.6 19:57:36 10° NNW 20:03:15 82° WSW 20:08:50 10° SSE
Cosmos 2151 Rocket 3.5 19:58:57 10° N 20:03:26 88° E 20:07:50 10° S
Cosmos 1603 4.1 19:58:52 10° S 20:04:32 67° ESE 20:10:14 10° NNE
Cosmos 1484 Rocket 3.8 20:01:12 10° NNE 20:04:34 43° E 20:07:53 10° S
Meteor 1-11 4.2 20:00:01 10° SSW 20:05:50 72° W 20:11:41 10° N
Okean 1 Rocket 3.5 20:05:26 10° N 20:09:42 62° E 20:13:56 10° SSE
COSMO-SKYMED 1 2.5 20:10:47 10° SSE 20:14:54 80° ENE 20:19:01 10° N
Sich 1 Rocket 3.8 20:11:30 10° N 20:16:00 76° E 20:20:25 10° S
Chandra Rocket (1) 4.4 20:14:09 13° WSW 20:18:45 39° S 20:34:26 10° ESE
Cosmos 1441 Rocket 2.9 20:19:25 10° S 20:22:45 82° E 20:26:04 10° N
SJ 16-02 3.2 20:25:37 12° WSW 20:25:37 12° WSW 20:26:44 10° WSW
IGS 5A 4.0 20:22:13 10° NNE 20:26:09 59° E 20:30:02 10° S
Cosmos 968 Rocket 3.8 20:23:52 10° NNW 20:28:51 46° WSW 20:33:48 10° S
SL-8 R/B 3.6 20:24:22 10° WSW 20:29:06 69° NW 20:33:51 10° NE
Cosmos 292 Rocket 4.4 20:27:42 10° N 20:32:25 58° ENE 20:37:04 10° SSE
BREEZE-M DEB (TANK) 4.0 20:27:23 10° SW 20:34:05 66° SE 20:36:52 10° ENE
Cosmos 1975 Rocket 4.0 20:31:48 10° S 20:35:57 52° E 20:40:07 10° NNE
BREEZE-M DEB (TANK) 3.0 20:34:45 13° W 20:36:30 30° NNW 20:38:54 10° NE
IRS-1D 4.5 20:37:06 10° NNW 20:40:55 23° WNW 20:44:44 10° WSW
Cosmos 1025 Rocket 4.0 20:40:31 10° SW 20:44:12 27° WNW 20:47:53 10° NNW
Cosmos 1400 Rocket 3.9 20:41:44 10° NW 20:44:27 20° W 20:47:08 10° SW
OAO 1 Rocket 4.5 20:41:55 10° W 20:47:14 85° S 20:52:31 10° E
CZ-3C R/B 4.1 20:45:08 10° SSW 20:49:18 21° SE 21:01:53 10° E
USA 267 4.4 20:48:21 10° NNE 20:53:13 23° NNW 20:58:05 10° WNW
Cosmos 1992 Rocket 4.0 20:50:11 10° SSW 20:55:19 62° WNW 21:00:29 10° N
Cosmos 2084 3.3 20:51:48 10° NNW 20:55:49 87° NE 20:59:48 10° SSE
NOSS 3-2 (A) 4.4 20:49:41 10° NNW 20:57:35 87° ENE 21:06:50 10° SSE
